Location: Passau
(48.5721°N, 13.4363°E)
Time: 10:00:35
(UTC+02:00)

OTV 5 (USA 277) - Visible Passes

Search period start: 28 May 2018 00:00
Search period end: 07 June 2018 00:00
Orbit: 310 x 323 km, 54.5° (Epoch: 27 May)

Date Brightness Start Highest point End Pass type
(mag) Time Alt. Az. Time Alt. Az. Time Alt. Az.
01 Jun ? 04:02:28 10° S 04:04:35 21° SE 04:06:46 10° E visible
02 Jun ? 04:16:15 10° SW 04:18:52 48° SE 04:21:32 10° ENE visible
03 Jun ? 02:59:08 14° SE 02:59:18 14° SE 03:00:54 10° E visible
04 Jun ? 03:12:48 26° S 03:13:31 31° SE 03:16:01 10° ENE visible
05 Jun ? 03:26:26 24° SW 03:27:52 74° SE 03:30:37 10° ENE visible
06 Jun ? 02:09:09 17° ESE 02:09:09 17° ESE 02:10:22 10° E visible
06 Jun ? 03:40:01 13° WSW 03:42:20 53° NNW 03:45:02 10° NE visible
